Port Isabel, TX

9:43 AM CST on February 23, 2017 (GMT -0600)
Port Isabel-Cameron County

Weather History for KPIL - October, 2012

Change the Weather History Date:

Saturday, October 27, 2012

  Actual Average (KBRO) Record (KBRO)
Temperature  
Mean Temperature 60 °F -  
Max Temperature 66 °F 82 °F 93 °F (1902)
Min Temperature 55 °F 64 °F 45 °F (1913)
Degree Days  
Heating Degree Days 4    
Growing Degree Days 10 (Base 50)    
Moisture  
Dew Point 46 °F    
Average Humidity 63    
Maximum Humidity 82    
Minimum Humidity 47    
Precipitation  
Precipitation 0.00 in - - ()
Sea Level Pressure  
Sea Level Pressure 30.15 in    
Wind  
Wind Speed 19 mph (NNW)    
Max Wind Speed 23 mph    
Max Gust Speed 30 mph    
Visibility 10 miles    
Events      
Averages and records for this station are not official NWS values.
T = Trace of Precipitation, MM = Missing Value Source: NWS Daily Summary

Daily Weather History Graph

Daily Weather History Graph

Search for Another Location

Airport or City:

Trip Planner

Search our weather history database for the weather conditions in past years. The results will help you decide how hot, cold, wet, or windy it might be!

Date:

Astronomy

Oct. 27, 2012 Rise Set
Actual Time 7:35 AM CDT 6:50 PM CDT
Civil Twilight 7:11 AM CDT 7:14 PM CDT
Nautical Twilight 6:44 AM CDT 7:41 PM CDT
Astronomical Twilight 6:17 AM CDT 8:08 PM CDT
Moon 5:31 PM CDT (10/27) 5:40 AM CDT (10/27)
Length of Visible Light 12h 02m
Length of Day
11h 15m
Waxing Gibbous, 96% of the Moon is Illuminated
Oct 27
Waxing Gibbous
Oct 29
Full
Nov 6
Last Quarter
Nov 13
New
Nov 20
First Quarter

Hourly Weather History & Observations

Time (CDT) Temp. Dew Point Humidity Pressure Visibility Wind Dir Wind Speed Gust Speed Precip Events Conditions
12:53 AM 60.1 °F 50.0 °F 69% 30.14 in 10.0 mi NW 20.7 mph 25.3 mph N/A   Overcast
1:53 AM 59.0 °F 50.0 °F 72% 30.13 in 10.0 mi NNW 20.7 mph - N/A   Overcast
2:53 AM 59.0 °F 48.9 °F 69% 30.13 in 10.0 mi NNW 20.7 mph - N/A   Overcast
3:53 AM 57.9 °F 50.0 °F 75% 30.12 in 10.0 mi NNW 21.9 mph - N/A   Overcast
4:27 AM 55.4 °F 50.0 °F 82% 30.11 in 9.0 mi NW 21.9 mph - N/A   Overcast
4:53 AM 55.9 °F 50.0 °F 80% 30.12 in 9.0 mi NW 23.0 mph 28.8 mph N/A   Overcast
5:53 AM 55.9 °F 50.0 °F 80% 30.13 in 10.0 mi NW 20.7 mph - N/A   Overcast
6:53 AM 55.9 °F 48.9 °F 77% 30.14 in 10.0 mi NNW 19.6 mph 26.5 mph N/A   Overcast
7:53 AM 57.0 °F 46.9 °F 69% 30.17 in 10.0 mi NNW 20.7 mph 29.9 mph N/A   Overcast
8:53 AM 57.0 °F 44.1 °F 62% 30.20 in 10.0 mi NNW 21.9 mph - N/A   Overcast
10:53 AM 57.9 °F 41.0 °F 53% 30.22 in 10.0 mi NNW 23.0 mph - N/A   Overcast
11:53 AM 61.0 °F 42.1 °F 50% 30.21 in 10.0 mi NNW 18.4 mph 25.3 mph N/A   Overcast
12:53 PM 62.1 °F 44.1 °F 52% 30.18 in 10.0 mi North 16.1 mph 25.3 mph N/A   Overcast
1:53 PM 64.9 °F 44.1 °F 47% 30.15 in 10.0 mi North 15.0 mph 21.9 mph N/A   Overcast
2:53 PM 66.0 °F 45.0 °F 47% 30.12 in 10.0 mi North 18.4 mph 23.0 mph N/A   Partly Cloudy
3:53 PM 64.0 °F 48.0 °F 56% 30.11 in 10.0 mi North 17.3 mph - N/A   Overcast
5:53 PM 63.0 °F 46.9 °F 56% 30.10 in 10.0 mi North 16.1 mph - N/A   Partly Cloudy
6:53 PM 61.0 °F 46.0 °F 58% 30.12 in 10.0 mi North 9.2 mph - N/A   Clear
7:53 PM 60.1 °F 45.0 °F 57% 30.13 in 10.0 mi NNW 5.8 mph - N/A   Clear
8:53 PM 60.1 °F 44.1 °F 55% 30.14 in 10.0 mi NW 5.8 mph - N/A   Clear
9:53 PM 59.0 °F 42.1 °F 53% 30.16 in 10.0 mi WNW 5.8 mph - N/A   Clear
11:53 PM 57.0 °F 42.1 °F 57% 30.16 in 10.0 mi West 5.8 mph - N/A   Partly Cloudy